IQ1GE Weather Reports


Display with metric or nautical units.
time (UTC)temp
F
wind
direction
speed
MPH
gust
MPH
rain 1hr
in
rain 24hr
in
rain mn
in
humidity
%
barometer
mb
20260903153934 84 193 0.0 0.0 0.00 0.00 0.00 72 1019.5
20260903153428 84 220 0.0 0.0 0.00 0.00 0.00 72 1019.5
20260903152928 84 222 0.0 0.0 0.00 0.00 0.00 73 1019.6
20260903152431 84 237 0.0 0.0 0.00 0.00 0.00 74 1019.6
20260903151928 84 220 0.0 0.0 0.00 0.00 0.00 74 1019.6
20260903151431 84 230 0.0 0.0 0.00 0.00 0.00 73 1019.7
20260903150934 84 197 0.0 0.0 0.00 0.00 0.00 74 1019.5
20260903150428 84 210 0.0 0.0 0.00 0.00 0.00 74 1019.5
20260903145928 84 235 0.0 0.0 0.00 0.00 0.00 74 1019.6
20260903145428 84 237 0.0 0.0 0.00 0.00 0.00 74 1019.6
20260903144931 84 228 0.0 0.0 0.00 0.00 0.00 75 1019.7
20260903144428 84 225 0.0 0.0 0.00 0.00 0.00 74 1019.7
20260903143928 84 214 0.0 0.0 0.00 0.00 0.00 74 1019.8
20260903143428 85 190 0.0 0.0 0.00 0.00 0.00 73 1019.8
20260903142934 84 243 0.0 0.0 0.00 0.00 0.00 74 1019.8
20260903142428 84 210 0.0 0.0 0.00 0.00 0.00 74 1019.9
20260903141931 84 266 0.0 0.0 0.00 0.00 0.00 74 1019.9
20260903141428 84 213 0.0 0.0 0.00 0.00 0.00 74 1019.8
20260903140934 84 235 0.0 0.0 0.00 0.00 0.00 74 1019.9
20260903140428 84 231 0.0 0.0 0.00 0.00 0.00 74 1019.9
20260903135931 84 238 0.0 0.0 0.00 0.00 0.00 74 1020.0
20260903135428 84 239 0.0 0.0 0.00 0.00 0.00 74 1020.0
20260903134931 84 234 0.0 0.0 0.00 0.00 0.00 75 1020.1
20260903134434 84 237 0.0 0.0 0.00 0.00 0.00 74 1020.1
20260903133928 84 238 0.0 0.0 0.00 0.00 0.00 74 1020.2
20260903133428 84 197 0.0 0.0 0.00 0.00 0.00 75 1020.3
20260903132931 84 237 0.0 0.0 0.00 0.00 0.00 75 1020.3
20260903132428 84 206 0.0 0.0 0.00 0.00 0.00 75 1020.1
20260903131934 84 194 0.0 0.0 0.00 0.00 0.00 75 1020.1
20260903131428 84 224 0.0 0.0 0.00 0.00 0.00 74 1020.1
20260903130931 84 205 0.0 0.0 0.00 0.00 0.00 74 1020.1
20260903130437 84 191 0.0 0.0 0.00 0.00 0.00 75 1020.0
20260903125928 84 218 0.0 0.0 0.00 0.00 0.00 75 1020.0
20260903125431 83 212 0.0 0.0 0.00 0.00 0.00 75 1020.1
20260903124928 84 225 0.0 0.0 0.00 0.00 0.00 76 1020.1
20260903124431 83 219 0.0 0.0 0.00 0.00 0.00 76 1020.1
20260903123934 83 212 0.0 0.0 0.00 0.00 0.00 76 1020.1
20260903123428 83 178 0.0 0.0 0.00 0.00 0.00 76 1020.1
20260903122928 84 219 0.0 0.0 0.00 0.00 0.00 75 1020.1
20260903122431 84 237 0.0 0.0 0.00 0.00 0.00 76 1020.0
20260903121928 84 206 0.0 0.0 0.00 0.00 0.00 75 1020.0
20260903121431 84 233 0.0 0.0 0.00 0.00 0.00 75 1020.1
20260903120928 84 222 0.0 0.0 0.00 0.00 0.00 75 1020.1
20260903120431 84 231 0.0 0.0 0.00 0.00 0.00 74 1020.1
20260903115934 84 228 0.0 0.0 0.00 0.00 0.00 75 1020.1
20260903115428 84 251 0.0 0.0 0.00 0.00 0.00 74 1020.1
20260903114931 84 239 0.0 0.0 0.00 0.00 0.00 74 1020.2
20260903114428 84 230 0.0 0.0 0.00 0.00 0.00 73 1020.2
20260903113928 84 226 0.0 0.0 0.00 0.00 0.00 72 1020.2
20260903113431 85 237 0.0 0.0 0.00 0.00 0.00 71 1020.1
20260903112934 85 202 0.0 0.0 0.00 0.00 0.00 71 1020.2
20260903112431 85 201 0.0 0.0 0.00 0.00 0.00 72 1020.2
20260903111928 84 235 0.0 0.0 0.00 0.00 0.00 71 1020.2
20260903111428 85 230 0.0 0.0 0.00 0.00 0.00 71 1020.3
20260903110934 85 260 0.0 0.0 0.00 0.00 0.00 70 1020.4
20260903110431 85 246 0.0 0.0 0.00 0.00 0.00 71 1020.4
20260903105928 84 219 0.0 0.0 0.00 0.00 0.00 71 1020.4
20260903105431 84 168 0.0 0.0 0.00 0.00 0.00 71 1020.5
20260903104934 84 244 0.0 0.0 0.00 0.00 0.00 72 1020.6
20260903104428 84 243 0.0 0.0 0.00 0.00 0.00 70 1020.6
20260903103931 85 176 0.0 0.0 0.00 0.00 0.00 70 1020.7
20260903103428 85 204 0.0 0.0 0.00 0.00 0.00 69 1020.7
20260903102928 85 224 0.0 0.0 0.00 0.00 0.00 68 1020.7
20260903102431 85 219 0.0 0.0 0.00 0.00 0.00 66 1020.8
20260903101934 86 226 0.0 0.0 0.00 0.00 0.00 64 1020.7
20260903101428 87 215 0.0 0.0 0.00 0.00 0.00 64 1020.7
20260903100931 87 204 0.0 0.0 0.00 0.00 0.00 63 1020.7
20260903100428 87 211 0.0 0.0 0.00 0.00 0.00 63 1020.7
20260903095928 87 174 0.0 0.0 0.00 0.00 0.00 62 1020.7
20260903095431 87 202 0.0 0.0 0.00 0.00 0.00 62 1020.7
20260903094934 87 181 0.0 0.0 0.00 0.00 0.00 60 1020.7
20260903094428 87 202 0.0 0.0 0.00 0.00 0.00 60 1020.7
20260903093931 87 220 0.0 0.0 0.00 0.00 0.00 61 1020.9
20260903093428 86 224 0.0 0.0 0.00 0.00 0.00 62 1020.9
20260903092931 86 227 0.0 0.0 0.00 0.00 0.00 63 1020.8
20260903092434 85 228 0.0 0.0 0.00 0.00 0.00 64 1020.8
20260903091928 85 214 0.0 0.0 0.00 0.00 0.00 64 1020.9
20260903091431 85 198 0.0 0.0 0.00 0.00 0.00 64 1020.9
20260903090931 86 207 0.0 0.0 0.00 0.00 0.00 64 1020.9
20260903090434 86 218 0.0 0.0 0.00 0.00 0.00 63 1021.0
20260903085928 86 214 0.0 0.0 0.00 0.00 0.00 64 1020.9
20260903085437 85 214 0.0 0.0 0.00 0.00 0.00 63 1020.8
20260903084928 86 201 0.0 0.0 0.00 0.00 0.00 63 1020.7
20260903084437 86 167 0.0 0.0 0.00 0.00 0.00 63 1020.7
20260903083931 85 167 0.0 0.0 0.00 0.00 0.00 63 1020.6
20260903083431 85 166 0.0 0.0 0.00 0.00 0.00 64 1020.7
20260903082928 84 160 0.0 0.0 0.00 0.00 0.00 66 1020.8
20260903082428 84 159 0.0 0.0 0.00 0.00 0.00 67 1020.7
20260903081934 83 158 0.0 0.0 0.00 0.00 0.00 67 1020.6
20260903081434 83 154 0.0 0.0 0.00 0.00 0.00 68 1020.6
20260903080928 83 143 0.0 0.0 0.00 0.00 0.00 67 1020.6
20260903080428 83 132 0.0 0.0 0.00 0.00 0.00 68 1020.6
20260903075928 83 131 0.0 0.0 0.00 0.00 0.00 68 1020.6
20260903075431 82 131 0.0 0.0 0.00 0.00 0.00 69 1020.5
20260903074931 81 112 0.0 0.0 0.00 0.00 0.00 70 1020.6
20260903074434 81 114 0.0 0.0 0.00 0.00 0.00 70 1020.6
20260903073934 80 111 0.0 0.0 0.00 0.00 0.00 71 1020.6
20260903073437 80 103 0.0 0.0 0.00 0.00 0.00 71 1020.5
20260903072928 80 104 0.0 0.0 0.00 0.00 0.00 71 1020.5
20260903072428 79 105 0.0 0.0 0.00 0.00 0.00 71 1020.6
20260903071934 79 108 0.0 0.0 0.00 0.00 0.00 71 1020.6
20260903071434 79 110 0.0 0.0 0.00 0.00 0.00 72 1020.6
20260903070928 78 116 0.0 0.0 0.00 0.00 0.00 72 1020.6
20260903070428 78 118 0.0 0.0 0.00 0.00 0.00 74 1020.5
20260903065931 78 113 0.0 0.0 0.00 0.00 0.00 73 1020.5
20260903065428 77 105 0.0 0.0 0.00 0.00 0.00 73 1020.5
20260903064928 77 91 0.0 0.0 0.00 0.00 0.00 72 1020.5
20260903064428 77 97 0.0 0.0 0.00 0.00 0.00 72 1020.5
20260903063937 77 83 0.0 0.0 0.00 0.00 0.00 73 1020.4
20260903063428 76 98 0.0 0.0 0.00 0.00 0.00 73 1020.4
20260903062928 76 84 0.0 0.0 0.00 0.00 0.00 73 1020.4
20260903062431 76 87 0.0 0.0 0.00 0.00 0.00 74 1020.3
20260903061928 76 85 0.0 0.0 0.00 0.00 0.00 74 1020.4
20260903061431 76 97 0.0 0.0 0.00 0.00 0.00 74 1020.3
20260903060928 76 108 0.0 0.0 0.00 0.00 0.00 74 1020.3
20260903060431 76 95 0.0 0.0 0.00 0.00 0.00 74 1020.3
20260903055928 76 95 0.0 0.0 0.00 0.00 0.00 73 1020.3
20260903055437 75 92 0.0 0.0 0.00 0.00 0.00 73 1020.2
20260903054928 75 91 0.0 0.0 0.00 0.00 0.00 73 1020.2
20260903054431 75 77 0.0 0.0 0.00 0.00 0.00 73 1020.2
20260903053934 75 96 0.0 0.0 0.00 0.00 0.00 73 1020.1
20260903053428 75 93 0.0 0.0 0.00 0.00 0.00 72 1020.0
20260903052931 75 90 0.0 0.0 0.00 0.00 0.00 72 1020.0
20260903052431 75 95 0.0 0.0 0.00 0.00 0.00 72 1019.9
20260903051928 75 87 0.0 0.0 0.00 0.00 0.00 73 1019.9
20260903051431 75 95 0.0 0.0 0.00 0.00 0.00 74 1019.9
20260903050928 75 100 0.0 0.0 0.00 0.00 0.00 74 1019.9
20260903050428 75 97 0.0 0.0 0.00 0.00 0.00 74 1019.8
20260903045931 75 98 0.0 0.0 0.00 0.00 0.00 75 1019.8
20260903045434 75 100 0.0 0.0 0.00 0.00 0.00 75 1019.8
20260903044931 75 97 0.0 0.0 0.00 0.00 0.00 74 1019.8
20260903044434 75 101 0.0 0.0 0.00 0.00 0.00 74 1019.7
20260903043928 75 97 0.0 0.0 0.00 0.00 0.00 74 1019.7
20260903043435 75 94 0.0 0.0 0.00 0.00 0.00 73 1019.7
20260903042931 75 120 0.0 0.0 0.00 0.00 0.00 73 1019.7
20260903042428 75 121 0.0 0.0 0.00 0.00 0.00 73 1019.7
20260903041929 75 92 0.0 0.0 0.00 0.00 0.00 73 1019.7
20260903041432 75 96 0.0 0.0 0.00 0.00 0.00 73 1019.7
20260903040929 75 85 0.0 0.0 0.00 0.00 0.00 73 1019.6
20260903040429 75 122 0.0 0.0 0.00 0.00 0.00 73 1019.6
20260903035929 75 117 0.0 0.0 0.00 0.00 0.00 73 1019.6
20260903035428 75 95 0.0 0.0 0.00 0.00 0.00 73 1019.6
20260903034935 75 81 0.0 0.0 0.00 0.00 0.00 74 1019.5
20260903034428 75 58 0.0 0.0 0.00 0.00 0.00 74 1019.6
20260903033928 75 60 0.0 0.0 0.00 0.00 0.00 74 1019.5
20260903033432 75 59 0.0 0.0 0.00 0.00 0.00 74 1019.5
20260903032932 75 80 0.0 0.0 0.00 0.00 0.00 74 1019.5
20260903032429 75 120 0.0 0.0 0.00 0.00 0.00 74 1019.6
20260903031935 75 77 0.0 0.0 0.00 0.00 0.00 74 1019.6
20260903031429 75 50 0.0 0.0 0.00 0.00 0.00 76 1019.6
20260903030935 75 56 0.0 0.0 0.00 0.00 0.00 76 1019.6
20260903030432 75 71 0.0 0.0 0.00 0.00 0.00 76 1019.6
20260903025929 75 69 0.0 0.0 0.00 0.00 0.00 76 1019.6
20260903025432 75 99 0.0 0.0 0.00 0.00 0.00 77 1019.5
20260903024932 75 119 0.0 0.0 0.00 0.00 0.00 78 1019.6
20260903024435 75 96 0.0 0.0 0.00 0.00 0.00 78 1019.7
20260903023938 75 90 0.0 0.0 0.00 0.00 0.00 78 1019.7
20260903023429 75 89 0.0 0.0 0.00 0.00 0.00 78 1019.6
20260903022932 75 102 0.0 0.0 0.00 0.00 0.00 78 1019.6
20260903022429 75 112 0.0 0.0 0.00 0.00 0.00 79 1019.6
20260903021932 75 92 0.0 0.0 0.00 0.00 0.00 79 1019.5
20260903021435 75 81 0.0 0.0 0.00 0.00 0.00 79 1019.6
20260903020929 75 100 0.0 0.0 0.00 0.00 0.00 79 1019.6
20260903020426 75 64 0.0 0.0 0.00 0.00 0.00 80 1019.6
20260903015929 75 81 0.0 0.0 0.00 0.00 0.00 81 1019.6
20260903015426 75 42 0.0 0.0 0.00 0.00 0.00 82 1019.6
20260903014929 75 119 0.0 0.0 0.00 0.00 0.00 82 1019.5
20260903014426 75 121 0.0 0.0 0.00 0.00 0.00 82 1019.6
20260903013929 75 122 0.0 0.0 0.00 0.00 0.00 82 1019.6
20260903013426 75 68 0.0 0.0 0.00 0.00 0.00 82 1019.7
20260903012929 75 68 0.0 0.0 0.00 0.00 0.00 83 1019.7
20260903012426 75 89 0.0 0.0 0.00 0.00 0.00 84 1019.7
20260903011926 75 83 0.0 0.0 0.00 0.00 0.00 84 1019.6
20260903011429 75 87 0.0 0.0 0.00 0.00 0.00 85 1019.7
20260903010926 75 68 0.0 0.0 0.00 0.00 0.00 84 1019.7
20260903010426 75 102 0.0 0.0 0.00 0.00 0.00 84 1019.7
20260903005929 75 103 0.0 0.0 0.00 0.00 0.00 84 1019.6
20260903005426 75 60 0.0 0.0 0.00 0.00 0.00 84 1019.6
20260903004932 75 354 0.0 0.0 0.00 0.00 0.00 84 1019.7
20260903004426 75 85 0.0 0.0 0.00 0.00 0.00 84 1019.7
20260903003926 75 86 0.0 0.0 0.00 0.00 0.00 84 1019.7
20260903003429 75 119 0.0 0.0 0.00 0.00 0.00 85 1019.7
20260903002932 75 102 0.0 0.0 0.00 0.00 0.00 85 1019.7
20260903002426 76 122 0.0 0.0 0.00 0.00 0.00 84 1019.8
20260903001926 76 72 0.0 0.0 0.00 0.00 0.00 85 1019.9
20260903001429 76 52 0.0 0.0 0.00 0.00 0.00 85 1019.9
20260903000932 76 116 0.0 0.0 0.00 0.00 0.00 84 1019.9
20260903000429 76 119 0.0 0.0 0.00 0.00 0.00 85 1019.9
20260902235929 76 27 0.0 0.0 0.00 0.00 0.00 84 1019.8
20260902235432 76 99 0.0 0.0 0.00 0.00 0.00 84 1019.8
20260902234926 76 71 0.0 0.0 0.00 0.00 0.00 84 1019.9
20260902234429 76 100 0.0 0.0 0.00 0.00 0.00 84 1019.9
20260902233926 77 77 0.0 0.0 0.00 0.00 0.00 85 1020.0
20260902233429 77 106 0.0 0.0 0.00 0.00 0.00 85 1020.0
20260902232926 77 91 0.0 0.0 0.00 0.00 0.00 85 1020.0
20260902232426 77 96 0.0 0.0 0.00 0.00 0.00 85 1019.8
20260902231929 77 95 0.0 0.0 0.00 0.00 0.00 85 1019.8
20260902231429 77 74 0.0 0.0 0.00 0.00 0.00 85 1019.8
20260902230926 77 112 0.0 0.0 0.00 0.00 0.00 85 1019.8
20260902230429 77 85 0.0 0.0 0.00 0.00 0.00 85 1019.8
20260902225926 77 120 0.0 0.0 0.00 0.00 0.00 85 1019.8
20260902225426 77 93 0.0 0.0 0.00 0.00 0.00 85 1019.8
20260902224932 77 49 0.0 0.0 0.00 0.00 0.00 85 1019.8
20260902224426 77 87 0.0 0.0 0.00 0.00 0.00 85 1019.7
20260902223935 77 79 0.0 0.0 0.00 0.00 0.00 85 1019.8
20260902223426 77 125 0.0 0.0 0.00 0.00 0.00 85 1019.7
20260902222926 77 45 0.0 0.0 0.00 0.00 0.00 85 1019.7
20260902222429 77 87 0.0 0.0 0.00 0.00 0.00 85 1019.7
20260902221929 77 98 0.0 0.0 0.00 0.00 0.00 85 1019.8
20260902221432 77 91 0.0 0.0 0.00 0.00 0.00 85 1019.8
20260902220926 78 110 0.0 0.0 0.00 0.00 0.00 85 1019.8
20260902220426 78 91 0.0 0.0 0.00 0.00 0.00 84 1019.8
20260902215926 78 100 0.0 0.0 0.00 0.00 0.00 84 1019.8
20260902215429 78 106 0.0 0.0 0.00 0.00 0.00 84 1019.9
20260902214926 78 100 0.0 0.0 0.00 0.00 0.00 84 1019.8
20260902214429 78 84 0.0 0.0 0.00 0.00 0.00 84 1019.8
20260902213932 78 100 0.0 0.0 0.00 0.00 0.00 84 1019.7
20260902213426 78 105 0.0 0.0 0.00 0.00 0.00 84 1019.7
20260902212926 78 102 0.0 0.0 0.00 0.00 0.00 83 1019.7
20260902212429 79 110 0.0 0.0 0.00 0.00 0.00 83 1019.7
20260902211929 79 359 0.0 0.0 0.00 0.00 0.00 83 1019.7
20260902211426 79 359 0.0 0.0 0.00 0.00 0.00 83 1019.7
20260902210926 79 359 0.0 0.0 0.00 0.00 0.00 82 1019.7
20260902210429 79 226 0.0 0.0 0.00 0.00 0.00 82 1019.7
20260902205926 79 226 0.0 0.0 0.00 0.00 0.00 82 1019.7
20260902205432 79 226 0.0 0.0 0.00 0.00 0.00 82 1019.7
20260902204926 79 225 0.0 0.0 0.00 0.00 0.00 82 1019.6
20260902204429 79 225 0.0 0.0 0.00 0.00 0.00 82 1019.6
20260902203932 79 225 0.0 0.0 0.00 0.00 0.00 82 1019.5
20260902203429 79 225 0.0 0.0 0.00 0.00 0.00 82 1019.5
20260902202926 79 224 0.0 0.0 0.00 0.00 0.00 82 1019.6
20260902202426 79 224 0.0 0.0 0.00 0.00 0.00 82 1019.6
20260902201929 79 224 0.0 0.0 0.00 0.00 0.00 81 1019.6
20260902201426 80 225 0.0 0.0 0.00 0.00 0.00 81 1019.6
20260902200926 80 222 0.0 0.0 0.00 0.00 0.00 81 1019.5
20260902200432 80 222 0.0 0.0 0.00 0.00 0.00 81 1019.5
20260902195932 80 228 0.0 0.0 0.00 0.00 0.00 81 1019.5
20260902195426 80 229 0.0 0.0 0.00 0.00 0.00 81 1019.5
20260902194929 79 227 0.0 0.0 0.00 0.00 0.00 82 1019.5
20260902194435 79 224 0.0 0.0 0.00 0.00 0.00 81 1019.5
20260902193927 80 233 0.0 0.0 0.00 0.00 0.00 81 1019.4
20260902193427 79 230 0.0 0.0 0.00 0.00 0.00 81 1019.4
20260902192926 79 228 0.0 0.0 0.00 0.00 0.00 81 1019.4
20260902192429 79 228 0.0 0.0 0.00 0.00 0.00 81 1019.4
20260902191927 79 229 0.0 0.0 0.00 0.00 0.00 81 1019.4
20260902191435 80 230 0.0 0.0 0.00 0.00 0.00 81 1019.3
20260902190926 80 230 0.0 0.0 0.00 0.00 0.00 81 1019.4
20260902190430 80 230 0.0 0.0 0.00 0.00 0.00 81 1019.4
20260902185927 80 229 0.0 0.0 0.00 0.00 0.00 81 1019.4
20260902185436 80 228 0.0 0.0 0.00 0.00 0.00 81 1019.3
20260902184930 80 228 0.0 0.0 0.00 0.00 0.00 81 1019.3
20260902184427 80 228 0.0 0.0 0.00 0.00 0.00 81 1019.2
20260902183927 80 228 0.0 0.0 0.00 0.00 0.00 81 1019.2
20260902183427 80 228 0.0 0.0 0.00 0.00 0.00 81 1019.2
20260902182927 80 228 0.0 0.0 0.00 0.00 0.00 81 1019.1
20260902182433 80 223 0.0 0.0 0.00 0.00 0.00 81 1019.1
20260902181933 80 223 0.0 0.0 0.00 0.00 0.00 81 1019.0
20260902181427 80 224 0.0 0.0 0.00 0.00 0.00 80 1019.1
20260902180930 80 237 0.0 0.0 0.00 0.00 0.00 80 1019.0
20260902180427 80 206 0.0 0.0 0.00 0.00 0.00 80 1019.0
20260902175927 80 220 0.0 0.0 0.00 0.00 0.00 80 1019.0
20260902175427 80 211 0.0 0.0 0.00 0.00 0.00 80 1019.0
20260902174930 80 226 0.0 0.0 0.00 0.00 0.00 80 1019.0
20260902174427 80 224 0.0 0.0 0.00 0.00 0.00 80 1018.9
20260902173927 80 239 0.0 0.0 0.00 0.00 0.00 79 1018.9
20260902173433 80 218 0.0 0.0 0.00 0.00 0.00 79 1018.9
20260902172927 81 196 0.0 0.0 0.00 0.00 0.00 79 1018.8
20260902172427 81 242 0.0 0.0 0.00 0.00 0.00 78 1018.8
20260902171933 81 170 0.0 0.0 0.00 0.00 0.00 78 1018.8
20260902171433 81 218 0.0 0.0 0.00 0.00 0.00 77 1018.8
20260902170927 81 219 0.0 0.0 0.00 0.00 0.00 77 1018.8
20260902170427 81 213 0.0 0.0 0.00 0.00 0.00 77 1018.8
20260902165927 81 247 0.0 0.0 0.00 0.00 0.00 77 1018.8
20260902165427 82 261 0.0 0.0 0.00 0.00 0.00 76 1018.7
20260902164933 82 203 0.0 0.0 0.00 0.00 0.00 76 1018.7
20260902164433 82 234 0.0 0.0 0.00 0.00 0.00 76 1018.8
20260902163927 82 171 0.0 0.0 0.00 0.00 0.00 76 1018.8
20260902163427 82 219 0.0 0.0 0.00 0.00 0.00 76 1018.8
20260902162930 82 199 0.0 0.0 0.00 0.00 0.00 76 1018.9
20260902162433 82 222 0.0 0.0 0.00 0.00 0.00 75 1018.9
20260902161936 82 220 0.0 0.0 0.00 0.00 0.00 75 1018.9
20260902161430 82 204 0.0 0.0 0.00 0.00 0.00 75 1019.0
20260902160927 82 187 0.0 0.0 0.00 0.00 0.00 76 1019.0
20260902160430 82 212 0.0 0.0 0.00 0.00 0.00 75 1019.0
20260902155927 82 232 0.0 0.0 0.00 0.00 0.00 75 1019.0
20260902155430 82 204 0.0 0.0 0.00 0.00 0.00 75 1019.1
20260902154930 82 187 0.0 0.0 0.00 0.00 0.00 75 1019.0
20260902154427 82 226 0.0 0.0 0.00 0.00 0.00 75 1019.0